Tracking 18987 objects as of 25-Feb-2018
HD Live streaming from Space Station
objects crossing your sky now

NOAA 16 DEB

Track NOAA 16 DEB now!
10-day predictions


NORAD ID: 41413
Int'l Code: 2000-055KS
Perigee: 845.0 km
Apogee: 883.2 km
Inclination: 98.8 °
Period: 102.1 minutes
Semi major axis: 7235 km
RCS: Unknown
Launch date: September 21, 2000
Source: United States (US)
Launch site: AIR FORCE WESTERN TEST RANGE (AFWTR)

Note: This is SATELLITE DEBRIS
aabbcc
Your satellite tracking list
Your tracking list is empty




NASA's NSSDC Master Catalog

Two Line Element Set (TLE):
1 41413U 00055KS  18055.43243654 +.00000643 +00000-0 +38293-3 0  9994
2 41413 098.8464 125.5976 0026428 186.1142 173.9710 14.10712055104575
Source of the keplerian elements: AFSPC